DW4669 Weather Reports


Display with metric or nautical units.
time (UTC)temp
F
wind
direction
speed
MPH
gust
MPH
rain 1hr
in
rain 24hr
in
rain mn
in
humidity
%
barometer
mb
20260503212014 58 339 5.0 15.0 0.00 0.00 0.00 36 1008.9
20260503211530 59 294 4.0 12.0 0.00 0.00 0.00 36 1009.0
20260503211018 58 313 5.0 14.0 0.00 0.00 0.00 35 1008.9
20260503210510 58 307 6.0 14.0 0.00 0.00 0.00 35 1008.9
20260503210030 59 304 5.0 15.0 0.00 0.00 0.00 34 1008.9
20260503205512 58 346 6.0 15.0 0.00 0.00 0.00 36 1009.0
20260503205012 58 313 4.0 12.0 0.00 0.00 0.00 36 1009.0
20260503204530 58 317 5.0 13.0 0.00 0.00 0.00 36 1009.0
20260503204013 59 314 6.0 16.0 0.00 0.00 0.00 33 1009.2
20260503203514 58 287 4.0 16.0 0.00 0.00 0.00 36 1009.1
20260503203035 58 308 8.0 16.0 0.00 0.00 0.00 37 1009.2
20260503202512 57 325 6.0 16.0 0.00 0.00 0.00 37 1009.2
20260503202016 58 326 6.0 14.0 0.00 0.00 0.00 37 1009.1
20260503201530 58 304 6.0 15.0 0.00 0.00 0.00 37 1009.2
20260503201014 58 283 6.0 15.0 0.00 0.00 0.00 38 1009.2
20260503200511 57 332 8.0 23.0 0.00 0.00 0.00 37 1009.2
20260503200029 58 314 8.0 23.0 0.00 0.00 0.00 35 1009.2
20260503195513 58 338 8.0 14.0 0.00 0.00 0.00 41 1009.2
20260503195017 58 302 6.0 16.0 0.00 0.00 0.00 36 1009.3
20260503194528 57 326 5.0 16.0 0.00 0.00 0.00 43 1009.5
20260503194015 57 286 7.0 13.0 0.00 0.00 0.00 40 1009.5
20260503193512 57 304 5.0 13.0 0.00 0.00 0.00 40 1009.5
20260503193041 56 306 7.0 15.0 0.00 0.00 0.00 43 1009.6
20260503192514 56 307 5.0 15.0 0.00 0.00 0.00 40 1009.7
20260503192012 56 311 6.0 14.0 0.00 0.00 0.00 38 1009.8
20260503191600 56 316 5.0 17.0 0.00 0.00 0.00 38 1009.8
20260503191012 56 294 6.0 19.0 0.00 0.00 0.00 43 1009.8
20260503190513 56 319 8.0 19.0 0.00 0.00 0.00 39 1009.9
20260503190034 57 299 3.0 11.0 0.00 0.00 0.00 43 1009.8
20260503185511 57 301 4.0 13.0 0.00 0.00 0.00 45 1009.9
20260503185014 57 294 5.0 14.0 0.00 0.00 0.00 49 1010.0
20260503184528 56 169 7.0 14.0 0.00 0.00 0.00 44 1010.0
20260503184014 56 317 6.0 14.0 0.00 0.00 0.00 42 1010.0
20260503183515 55 312 4.0 15.0 0.00 0.00 0.00 44 1010.1
20260503183030 54 303 7.0 15.0 0.00 0.00 0.00 44 1010.1
20260503182512 54 323 7.0 17.0 0.00 0.00 0.00 39 1010.1
20260503182013 55 315 5.0 17.0 0.00 0.00 0.00 46 1010.2
20260503181544 53 5 8.0 17.0 0.00 0.00 0.00 44 1010.2
20260503181014 54 313 6.0 16.0 0.00 0.00 0.00 42 1010.3
20260503180514 54 312 3.0 16.0 0.00 0.00 0.00 42 1010.3
20260503180033 54 294 7.0 13.0 0.00 0.00 0.00 50 1010.3
20260503175512 54 313 4.0 17.0 0.00 0.00 0.00 45 1010.3
20260503175016 52 324 6.0 17.0 0.00 0.00 0.00 44 1010.3
20260503174539 52 313 4.0 13.0 0.00 0.00 0.00 46 1010.4
20260503174012 52 302 5.0 12.0 0.00 0.00 0.00 46 1010.4
20260503173514 52 306 6.0 12.0 0.00 0.00 0.00 49 1010.5
20260503173030 51 347 4.0 12.0 0.00 0.00 0.00 46 1010.6
20260503172513 51 302 3.0 16.0 0.00 0.00 0.00 49 1010.7
20260503172015 51 344 5.0 16.0 0.00 0.00 0.00 50 1010.6
20260503171530 51 305 5.0 11.0 0.00 0.00 0.00 52 1010.7
20260503171014 51 339 5.0 11.0 0.00 0.00 0.00 49 1010.8
20260503170511 51 352 4.0 11.0 0.00 0.00 0.00 47 1010.9
20260503151014 48 334 8.0 13.0 0.00 0.00 0.00 49 1011.3
20260503150511 49 322 5.0 13.0 0.00 0.00 0.00 47 1011.1
20260503131014 45 317 4.0 12.0 0.00 0.00 0.00 63 1011.5
20260503130514 45 327 5.0 13.0 0.00 0.00 0.00 64 1011.5
20260503110510 40 317 2.0 5.0 0.00 0.00 0.00 72 1011.0
20260503090511 41 321 1.0 9.0 0.00 0.01 0.00 70 1010.3
20260503081536 42 0 3.0 10.0 0.00 0.04 0.00 66 1010.4
20260503081010 42 317 3.0 10.0 0.00 0.04 0.00 66 1010.4
20260503080511 42 313 2.0 13.0 0.00 0.04 0.00 66 1010.3
20260503072513 43 306 3.0 10.0 0.00 0.05 0.00 63 1010.3
20260503072010 43 321 3.0 10.0 0.00 0.05 0.00 63 1010.4
20260503071531 43 325 3.0 9.0 0.00 0.05 0.00 62 1010.3
20260503071011 43 315 2.0 10.0 0.00 0.05 0.00 62 1010.4
20260503070514 43 316 2.0 11.0 0.00 0.05 0.00 62 1010.3
20260503055011 45 0 0.0 9.0 0.00 0.07 0.00 61 1010.7
20260503054544 45 315 0.0 9.0 0.00 0.07 0.00 60 1010.7
20260503054011 45 0 0.0 6.0 0.00 0.07 0.00 60 1010.7
20260503053511 45 0 0.0 8.0 0.00 0.07 0.00 60 1010.7
20260503053032 45 0 2.0 8.0 0.00 0.07 0.00 59 1010.8
20260503052512 45 0 2.0 8.0 0.00 0.07 0.00 60 1010.8
20260503052010 45 317 1.0 8.0 0.00 0.07 0.00 60 1010.9
20260503051531 45 331 2.0 8.0 0.00 0.07 0.00 60 1010.9
20260503051011 45 0 0.0 6.0 0.00 0.07 0.00 60 1010.8
20260503050513 45 0 1.0 7.0 0.00 0.07 0.00 59 1010.9
20260503050033 45 0 1.0 7.0 0.00 0.07 0.00 60 1011.0
20260503045511 45 301 1.0 5.0 0.00 0.07 0.00 62 1011.1
20260503045017 44 0 1.0 5.0 0.00 0.07 0.00 60 1011.1
20260503044538 45 0 0.0 2.0 0.00 0.07 0.00 61 1011.2
20260503044013 45 0 0.0 6.0 0.00 0.07 0.00 60 1011.2
20260503043511 45 0 1.0 6.0 0.00 0.07 0.00 59 1011.2
20260503043036 45 323 0.0 6.0 0.00 0.07 0.00 59 1011.3
20260503042514 45 329 1.0 5.0 0.00 0.07 0.00 60 1011.2
20260503042012 45 0 0.0 3.0 0.00 0.07 0.00 61 1011.3
20260503041530 45 0 0.0 8.0 0.00 0.07 0.00 60 1011.3
20260503041010 45 333 0.0 8.0 0.00 0.07 0.00 59 1011.3
20260503040516 44 338 0.0 6.0 0.00 0.07 0.00 60 1011.3
20260503040032 44 336 1.0 7.0 0.00 0.07 0.00 62 1011.3
20260503035516 43 0 0.0 7.0 0.00 0.07 0.07 61 1011.2
20260503035011 44 0 0.0 2.0 0.00 0.07 0.07 62 1011.3
20260503034531 44 0 0.0 0.0 0.00 0.07 0.07 64 1011.3
20260503034011 44 0 0.0 0.0 0.00 0.07 0.07 61 1011.4
20260503033511 44 0 0.0 0.0 0.00 0.07 0.07 60 1011.2
20260503033031 45 0 0.0 3.0 0.00 0.07 0.07 59 1011.2
20260503032515 45 0 0.0 3.0 0.00 0.07 0.07 59 1011.2
20260503032014 45 0 0.0 3.0 0.00 0.07 0.07 57 1011.1
20260503031531 45 0 0.0 0.0 0.00 0.07 0.07 58 1011.1
20260503031011 45 0 0.0 1.0 0.00 0.07 0.07 57 1011.2
20260503030513 45 0 0.0 1.0 0.00 0.07 0.07 57 1011.1
20260503030034 45 0 0.0 1.0 0.00 0.07 0.07 57 1011.1
20260503025510 46 0 0.0 0.0 0.00 0.07 0.07 58 1011.2
20260503025013 46 0 0.0 4.0 0.00 0.07 0.07 58 1011.1
20260503024533 46 0 0.0 4.0 0.00 0.07 0.07 56 1011.2
20260503024011 47 0 0.0 2.0 0.00 0.07 0.07 57 1011.1
20260503023512 47 0 0.0 2.0 0.00 0.07 0.07 55 1011.1
20260503023035 47 0 0.0 4.0 0.00 0.07 0.07 54 1011.2
20260503022515 47 0 0.0 4.0 0.00 0.07 0.07 54 1011.3
20260503022013 47 342 0.0 4.0 0.00 0.07 0.07 54 1011.4
20260503021529 46 0 0.0 3.0 0.00 0.07 0.07 55 1011.5
20260503021014 47 0 0.0 1.0 0.00 0.07 0.07 57 1011.4
20260503020511 47 0 0.0 0.0 0.00 0.07 0.07 57 1011.5
20260503020032 47 0 0.0 4.0 0.00 0.07 0.07 58 1011.4
20260503015514 47 0 0.0 4.0 0.00 0.07 0.07 57 1011.3
20260503015011 47 0 0.0 0.0 0.00 0.07 0.07 61 1011.4
20260503014530 47 0 0.0 0.0 0.00 0.07 0.07 60 1011.2
20260503014012 47 0 0.0 0.0 0.00 0.07 0.07 59 1011.3
20260503013512 48 0 0.0 1.0 0.00 0.07 0.07 59 1011.3
20260503013037 48 0 0.0 1.0 0.00 0.07 0.07 58 1011.1
20260503012515 48 0 0.0 5.0 0.00 0.07 0.07 56 1011.2
20260503012011 48 0 1.0 5.0 0.00 0.07 0.07 54 1011.2
20260503011528 48 0 0.0 3.0 0.00 0.07 0.07 54 1011.1
20260503011011 49 0 0.0 5.0 0.00 0.07 0.07 54 1011.1
20260503010514 49 0 0.0 5.0 0.00 0.07 0.07 53 1011.0
20260503010031 49 0 0.0 6.0 0.00 0.07 0.07 51 1010.9
20260503005513 49 0 0.0 7.0 0.00 0.07 0.07 52 1010.8
20260503005012 49 0 1.0 7.0 0.00 0.07 0.07 50 1010.8
20260503004535 49 323 0.0 5.0 0.00 0.07 0.07 53 1010.7
20260503004016 49 0 0.0 5.0 0.00 0.07 0.07 52 1010.7
20260503003511 49 335 0.0 3.0 0.00 0.07 0.07 52 1010.7
20260503003042 49 0 0.0 6.0 0.00 0.07 0.07 52 1010.7
20260503002511 49 0 0.0 6.0 0.00 0.07 0.07 53 1010.8
20260503002011 49 0 0.0 4.0 0.00 0.07 0.07 52 1010.6
20260503001540 50 0 0.0 4.0 0.00 0.07 0.07 53 1010.5
20260503001012 50 0 0.0 4.0 0.00 0.07 0.07 52 1010.5
20260503000511 50 328 0.0 4.0 0.00 0.07 0.07 50 1010.5
20260503000034 50 329 1.0 5.0 0.00 0.07 0.07 50 1010.5
20260502235510 51 317 1.0 6.0 0.00 0.07 0.07 48 1010.4
20260502235015 51 296 1.0 6.0 0.00 0.07 0.07 48 1010.4
20260502234543 51 312 1.0 4.0 0.00 0.07 0.07 51 1010.4
20260502234012 51 317 0.0 5.0 0.00 0.07 0.07 49 1010.4
20260502233513 52 319 1.0 5.0 0.00 0.07 0.07 48 1010.3
20260502233039 52 317 2.0 6.0 0.00 0.07 0.07 46 1010.4
20260502232511 53 317 2.0 11.0 0.00 0.07 0.07 46 1010.3
20260502232014 53 317 2.0 11.0 0.00 0.07 0.07 45 1010.2
20260502231529 53 315 3.0 9.0 0.00 0.07 0.07 44 1010.3
20260502231011 53 0 1.0 10.0 0.00 0.07 0.07 44 1010.3
20260502230512 54 308 1.0 10.0 0.00 0.07 0.07 43 1010.2
20260502230034 54 273 2.0 9.0 0.00 0.07 0.07 45 1010.1
20260502225511 54 311 3.0 8.0 0.00 0.07 0.07 43 1010.1
20260502225014 54 316 2.0 9.0 0.00 0.07 0.07 44 1010.0
20260502224528 54 296 2.0 9.0 0.00 0.07 0.07 45 1010.0
20260502224014 55 312 1.0 9.0 0.00 0.07 0.07 45 1010.1
20260502223513 55 301 3.0 9.0 0.00 0.07 0.07 41 1010.1
20260502223039 55 248 3.0 9.0 0.00 0.07 0.07 43 1010.0
20260502222514 55 312 3.0 8.0 0.00 0.07 0.07 41 1010.0
20260502222015 56 296 2.0 7.0 0.00 0.07 0.07 42 1009.9
20260502221529 57 320 3.0 9.0 0.00 0.07 0.07 43 1010.0
20260502221012 57 317 3.0 11.0 0.00 0.07 0.07 46 1009.9
20260502220512 57 325 3.0 11.0 0.00 0.07 0.07 42 1009.8
20260502220030 57 306 4.0 11.0 0.00 0.07 0.07 42 1009.7
20260502215514 57 258 6.0 11.0 0.00 0.07 0.07 42 1009.8
20260502215016 57 302 3.0 10.0 0.00 0.07 0.07 40 1009.8
20260502214530 58 320 4.0 10.0 0.00 0.07 0.07 42 1009.7
20260502214015 58 329 4.0 10.0 0.00 0.07 0.07 40 1009.6
20260502213514 57 281 2.0 7.0 0.00 0.07 0.07 41 1009.5
20260502213028 55 291 1.0 9.0 0.00 0.07 0.07 43 1009.5
20260502212514 55 267 2.0 9.0 0.00 0.07 0.07 43 1009.5